Weather History for Phoenix Deer Valley, AZ

Change the Weather History Date:

Monday, January 2, 2012

  Actual Average Record
Temperature  
Mean Temperature 66 °F -  
Max Temperature 78 °F 62 °F 78 °F (2012)
Min Temperature 55 °F 42 °F 32 °F (2011)
Cooling Degree Days 2    
Growing Degree Days 16 (Base 50)    
Moisture  
Dew Point 23 °F    
Average Humidity 20    
Maximum Humidity 29    
Minimum Humidity 11    
Precipitation  
Precipitation 0.00 in - - ()
Sea Level Pressure  
Sea Level Pressure 30.22 in    
Wind  
Wind Speed 6 mph (ENE)    
Max Wind Speed 14 mph    
Max Gust Speed 20 mph    
Visibility 10 miles    
Events      
Averages and records for this station are not official NWS values.
T = Trace of Precipitation, MM = Missing Value Source: NWS Daily Summary

Daily Weather History Graph

Daily Weather History Graph

Search for Another Location

Airport:

Trip Planner

Search our weather history database for the weather conditions in past years. The results will help you decide how hot, cold, wet, or windy it might be!

Date:

Astronomy

Jan. 02, 2012 Rise Set
Actual Time 7:33 AM MST 5:31 PM MST
Civil Twilight 7:05 AM MST 5:58 PM MST
Nautical Twilight 6:34 AM MST 6:29 PM MST
Astronomical Twilight 6:04 AM MST 7:00 PM MST
Moon 12:43 PM MST (1/2) 1:37 AM MST (1/2)
Length of Visible Light 10h 53m
Length of Day
9h 58m
Waxing Gibbous, 64% of the Moon is Illuminated
Jan 2
Waxing Gibbous
Jan 9
Full
Jan 16
Last Quarter
Jan 23
New
Jan 30
First Quarter

Hourly Weather History & Observations

Time (MST) Temp. Dew Point Humidity Pressure Visibility Wind Dir Wind Speed Gust Speed Precip Events Conditions
12:53 AM 59.0 °F 24.1 °F 26% 30.21 in 10.0 mi ENE 3.5 mph - N/A   Clear
1:53 AM 57.0 °F 24.1 °F 28% 30.21 in 10.0 mi NE 3.5 mph - N/A   Clear
2:53 AM 57.0 °F 21.9 °F 26% 30.22 in 10.0 mi NNE 6.9 mph - N/A   Clear
3:53 AM 57.0 °F 23.0 °F 27% 30.23 in 10.0 mi NE 5.8 mph - N/A   Clear
4:53 AM 55.0 °F 23.0 °F 29% 30.22 in 10.0 mi NNE 10.4 mph - N/A   Clear
6:53 AM 62.1 °F 19.0 °F 19% 30.25 in 10.0 mi NE 3.5 mph - N/A   Clear
8:53 AM 63.0 °F 23.0 °F 22% 30.29 in 10.0 mi East 6.9 mph - N/A   Clear
9:53 AM 68.0 °F 25.0 °F 20% 30.30 in 10.0 mi East 5.8 mph - N/A   Clear
10:53 AM 72.0 °F 21.9 °F 15% 30.28 in 10.0 mi East 10.4 mph 16.1 mph N/A   Clear
11:53 AM 73.9 °F 21.0 °F 14% 30.25 in 10.0 mi East 11.5 mph - N/A   Clear
12:53 PM 75.9 °F 21.9 °F 13% 30.21 in 10.0 mi East 10.4 mph 19.6 mph N/A   Clear
1:53 PM 75.9 °F 21.0 °F 13% 30.19 in 10.0 mi East 10.4 mph 19.6 mph N/A   Clear
2:53 PM 78.1 °F 19.9 °F 11% 30.17 in 10.0 mi East 13.8 mph - N/A   Clear
3:53 PM 78.1 °F 21.9 °F 12% 30.17 in 10.0 mi East 8.1 mph - N/A   Clear
4:53 PM 75.9 °F 23.0 °F 14% 30.17 in 10.0 mi ENE 4.6 mph - N/A   Clear
5:53 PM 73.0 °F 23.0 °F 15% 30.18 in 10.0 mi East 5.8 mph - N/A   Clear
6:53 PM 66.0 °F 25.0 °F 21% 30.19 in 10.0 mi East 5.8 mph - N/A   Clear
7:53 PM 69.1 °F 23.0 °F 18% 30.21 in 10.0 mi East 8.1 mph - N/A   Clear
8:53 PM 68.0 °F 23.0 °F 18% 30.20 in 10.0 mi ENE 5.8 mph - N/A   Clear
9:53 PM 64.9 °F 25.0 °F 22% 30.22 in 10.0 mi ENE 5.8 mph - N/A   Clear
10:53 PM 63.0 °F 25.0 °F 24% 30.22 in 10.0 mi ENE 4.6 mph - N/A   Clear
11:53 PM 63.0 °F 25.0 °F 24% 30.21 in 10.0 mi Variable 3.5 mph - N/A   Clear